Location: El Bakhil
(32.7726°N, 5.5387°W)
Time: 02:03:29
(UTC+00:00)

DIWATA 2B (PO-101) - Pass Details

Date: 30 July 2021
Orbit: 584 x 600 km, 97.9° (Epoch: 19 September)

Event Time Altitude Azimuth Distance (km) Brightness Sun altitude
Exits shadow 01:20:27 14° 18° (NNE) 1,691 ? -37.3°
Drops below altitude 10° 01:21:10 10° 12° (NNE) 1,941 ? -37.2°
Sets 01:23:33 0° 1° (N) 2,849 ? -37.1°
